Stündliche Wetter Abdulovo

Heute, 23 Juni, Mittwoch

Zeit Temperatur Niederschläge Wind Luftdruck Luftfeuchtigkeit
00:00 +24°C° 0 mm 2 m/S 749 mmHg 67%
01:00 +24°C° 0 mm 2 m/S 749 mmHg 69%
02:00 +23°C° 0 mm 2 m/S 749 mmHg 72%
03:00 +23°C° 0 mm 2 m/S 749 mmHg 76%
04:00 +23°C° 0 mm 2 m/S 749 mmHg 79%
05:00 +24°C° 0 mm 3 m/S 749 mmHg 75%
06:00 +26°C° 0 mm 3 m/S 749 mmHg 70%
07:00 +27°C° 0 mm 4 m/S 749 mmHg 66%
08:00 +28°C° 0.1 mm 5 m/S 748 mmHg 61%
09:00 +30°C° 0.1 mm 5 m/S 748 mmHg 56%
10:00 +32°C° 0.1 mm 6 m/S 748 mmHg 51%
11:00 +33°C° 0 mm 6 m/S 748 mmHg 47%
12:00 +34°C° 0 mm 7 m/S 748 mmHg 43%
13:00 +34°C° 0 mm 7 m/S 748 mmHg 38%
14:00 +34°C° 0 mm 7 m/S 748 mmHg 38%
15:00 +34°C° 0 mm 7 m/S 748 mmHg 38%
16:00 +34°C° 0 mm 7 m/S 747 mmHg 37%
17:00 +33°C° 0 mm 6 m/S 747 mmHg 43%
18:00 +32°C° 0 mm 5 m/S 747 mmHg 48%
19:00 +30°C° 0 mm 5 m/S 747 mmHg 53%
20:00 +27°C° 0.4 mm 4 m/S 747 mmHg 59%
21:00 +25°C° 0.4 mm 3 m/S 747 mmHg 65%
22:00 +21°C° 0.4 mm 2 m/S 748 mmHg 71%
23:00 +21°C° 0.1 mm 2 m/S 748 mmHg 74%

Morgen, 24 Juni, Donnerstag

Zeit Temperatur Niederschläge Wind Luftdruck Luftfeuchtigkeit
00:00 +20°C° 0.1 mm 2 m/S 747 mmHg 78%
01:00 +20°C° 0.1 mm 2 m/S 747 mmHg 81%
02:00 +19°C° 0 mm 2 m/S 748 mmHg 84%
03:00 +19°C° 0 mm 2 m/S 748 mmHg 88%
04:00 +19°C° 0 mm 2 m/S 748 mmHg 91%
05:00 +20°C° 0 mm 2 m/S 748 mmHg 88%
06:00 +21°C° 0 mm 2 m/S 748 mmHg 84%
07:00 +23°C° 0 mm 2 m/S 748 mmHg 80%
08:00 +24°C° 0 mm 2 m/S 748 mmHg 75%
09:00 +25°C° 0 mm 2 m/S 748 mmHg 70%
10:00 +26°C° 0 mm 2 m/S 748 mmHg 65%
11:00 +27°C° 0 mm 2 m/S 749 mmHg 62%
12:00 +28°C° 0 mm 2 m/S 749 mmHg 58%
13:00 +29°C° 0 mm 3 m/S 749 mmHg 54%
14:00 +29°C° 0 mm 3 m/S 748 mmHg 53%
15:00 +29°C° 0 mm 3 m/S 748 mmHg 52%
16:00 +29°C° 0 mm 3 m/S 748 mmHg 50%
17:00 +28°C° 0 mm 3 m/S 748 mmHg 53%
18:00 +28°C° 0 mm 3 m/S 748 mmHg 55%
19:00 +27°C° 0 mm 3 m/S 748 mmHg 58%
20:00 +25°C° 0 mm 2 m/S 748 mmHg 64%
21:00 +23°C° 0 mm 2 m/S 748 mmHg 69%
22:00 +21°C° 0 mm 1 m/S 748 mmHg 75%
23:00 +21°C° 0 mm 1 m/S 748 mmHg 77%

übermorgen, 25 Juni, Freitag

Zeit Temperatur Niederschläge Wind Luftdruck Luftfeuchtigkeit
00:00 +20°C° 0 mm 1 m/S 747 mmHg 79%
01:00 +20°C° 0 mm 1 m/S 747 mmHg 81%
02:00 +20°C° 0 mm 1 m/S 747 mmHg 82%
03:00 +19°C° 0 mm 1 m/S 747 mmHg 83%
04:00 +19°C° 0 mm 1 m/S 747 mmHg 83%
05:00 +21°C° 0 mm 1 m/S 747 mmHg 77%
06:00 +22°C° 0 mm 1 m/S 747 mmHg 71%
07:00 +22°C° 0 mm 0 m/S 747 mmHg 64%
08:00 +26°C° 0 mm 1 m/S 747 mmHg 59%
09:00 +27°C° 0 mm 2 m/S 747 mmHg 54%
10:00 +29°C° 0 mm 2 m/S 747 mmHg 49%
11:00 +30°C° 0 mm 3 m/S 746 mmHg 47%
12:00 +31°C° 0 mm 3 m/S 746 mmHg 45%
13:00 +33°C° 0 mm 3 m/S 746 mmHg 43%
14:00 +33°C° 0 mm 3 m/S 746 mmHg 45%
15:00 +31°C° 0 mm 3 m/S 746 mmHg 47%
16:00 +31°C° 0 mm 3 m/S 745 mmHg 49%
17:00 +30°C° 0 mm 3 m/S 745 mmHg 53%
18:00 +29°C° 0 mm 2 m/S 745 mmHg 57%
19:00 +28°C° 0 mm 2 m/S 745 mmHg 61%
20:00 +27°C° 0 mm 2 m/S 744 mmHg 65%
21:00 +26°C° 0 mm 2 m/S 744 mmHg 69%
22:00 +25°C° 0 mm 2 m/S 744 mmHg 72%
23:00 +24°C° 0 mm 2 m/S 744 mmHg 76%

26 Juni, Samstag

Zeit Temperatur Niederschläge Wind Luftdruck Luftfeuchtigkeit
00:00 +24°C° 0 mm 2 m/S 744 mmHg 80%
01:00 +23°C° 0 mm 2 m/S 744 mmHg 84%
02:00 +21°C° 0 mm 2 m/S 744 mmHg 85%
03:00 +22°C° 0 mm 1 m/S 744 mmHg 87%
04:00 +22°C° 0 mm 1 m/S 744 mmHg 88%
05:00 +23°C° 0 mm 2 m/S 744 mmHg 82%
06:00 +25°C° 0 mm 2 m/S 744 mmHg 77%
07:00 +26°C° 0 mm 3 m/S 744 mmHg 71%
08:00 +28°C° 0 mm 3 m/S 744 mmHg 65%
09:00 +29°C° 0 mm 3 m/S 744 mmHg 59%
10:00 +32°C° 0 mm 4 m/S 744 mmHg 53%
11:00 +33°C° 0 mm 4 m/S 744 mmHg 50%
12:00 +34°C° 0 mm 5 m/S 744 mmHg 46%
13:00 +35°C° 0 mm 5 m/S 743 mmHg 43%
14:00 +35°C° 0 mm 5 m/S 743 mmHg 43%
15:00 +34°C° 0 mm 5 m/S 743 mmHg 43%
16:00 +34°C° 0 mm 5 m/S 743 mmHg 44%
17:00 +33°C° 0 mm 5 m/S 743 mmHg 48%
18:00 +32°C° 0 mm 4 m/S 743 mmHg 53%
19:00 +30°C° 0 mm 4 m/S 743 mmHg 57%
20:00 +29°C° 0 mm 3 m/S 743 mmHg 62%
21:00 +27°C° 0 mm 3 m/S 743 mmHg 67%
22:00 +26°C° 0 mm 3 m/S 743 mmHg 72%
23:00 +25°C° 0.1 mm 3 m/S 743 mmHg 76%

27 Juni, Sonntag

Zeit Temperatur Niederschläge Wind Luftdruck Luftfeuchtigkeit
00:00 +24°C° 0.1 mm 3 m/S 743 mmHg 79%
01:00 +22°C° 0.1 mm 3 m/S 743 mmHg 82%
02:00 +22°C° 0 mm 3 m/S 743 mmHg 84%
03:00 +22°C° 0 mm 3 m/S 743 mmHg 86%
04:00 +21°C° 0 mm 3 m/S 743 mmHg 88%
05:00 +22°C° 0 mm 3 m/S 743 mmHg 84%
06:00 +23°C° 0 mm 4 m/S 744 mmHg 80%
07:00 +25°C° 0 mm 4 m/S 744 mmHg 75%
08:00 +27°C° 0 mm 4 m/S 744 mmHg 69%
09:00 +28°C° 0 mm 5 m/S 744 mmHg 62%
10:00 +30°C° 0 mm 5 m/S 744 mmHg 55%
11:00 +32°C° 0 mm 5 m/S 744 mmHg 51%
12:00 +33°C° 0 mm 6 m/S 744 mmHg 47%
13:00 +33°C° 0 mm 6 m/S 744 mmHg 43%
14:00 +33°C° 0 mm 6 m/S 744 mmHg 42%
15:00 +33°C° 0 mm 6 m/S 744 mmHg 42%
16:00 +33°C° 0 mm 6 m/S 744 mmHg 41%
17:00 +32°C° 0 mm 6 m/S 744 mmHg 46%
18:00 +32°C° 0 mm 5 m/S 745 mmHg 50%
19:00 +30°C° 0 mm 5 m/S 745 mmHg 55%
20:00 +28°C° 0 mm 4 m/S 745 mmHg 59%
21:00 +26°C° 0 mm 4 m/S 745 mmHg 63%
22:00 +25°C° 0 mm 3 m/S 745 mmHg 68%
23:00 +24°C° 0 mm 3 m/S 745 mmHg 69%

28 Juni, Montag

Zeit Temperatur Niederschläge Wind Luftdruck Luftfeuchtigkeit
00:00 +24°C° 0 mm 2 m/S 745 mmHg 71%
01:00 +23°C° 0 mm 2 m/S 744 mmHg 72%
02:00 +23°C° 0 mm 2 m/S 745 mmHg 74%
03:00 +21°C° 0 mm 2 m/S 745 mmHg 76%
04:00 +21°C° 0 mm 2 m/S 745 mmHg 78%
05:00 +22°C° 0 mm 3 m/S 745 mmHg 73%
06:00 +25°C° 0 mm 3 m/S 745 mmHg 68%
07:00 +26°C° 0 mm 3 m/S 745 mmHg 63%
08:00 +27°C° 0 mm 3 m/S 745 mmHg 58%
09:00 +29°C° 0 mm 3 m/S 745 mmHg 53%
10:00 +30°C° 0 mm 3 m/S 745 mmHg 49%
11:00 +31°C° 0 mm 3 m/S 745 mmHg 46%
12:00 +33°C° 0 mm 3 m/S 745 mmHg 44%
13:00 +34°C° 0 mm 3 m/S 745 mmHg 42%
14:00 +34°C° 0 mm 3 m/S 745 mmHg 42%
15:00 +34°C° 0 mm 3 m/S 745 mmHg 42%
16:00 +34°C° 0 mm 4 m/S 745 mmHg 41%
17:00 +31°C° 0 mm 3 m/S 745 mmHg 46%
18:00 +30°C° 0 mm 3 m/S 745 mmHg 51%
19:00 +28°C° 0 mm 3 m/S 745 mmHg 56%
20:00 +28°C° 0 mm 3 m/S 745 mmHg 58%
21:00 +27°C° 0 mm 3 m/S 745 mmHg 61%
22:00 +26°C° 0 mm 3 m/S 746 mmHg 63%
23:00 +25°C° 0 mm 4 m/S 746 mmHg 61%
Mehr zeigen

Wir brauchen deine Erlaubnis

Meteoprog und unser Service Anbieter werden persönliche Daten aufbewahren, so wie Cookies, Geräte Bezeichnung oder ähnliche Technologien von deinem Gerät und Prozess, so wie Persönliche Daten Inhalte und Werbungen, genauso wie social Media und den Verkehr zu analysieren.

  • Aufbewahrung und/oder Zugang zu deiner Geräte Informationen.

    Cookies, Geräte Bezeichnung oder andere Informationen, können aufbewahrt oder Zugang zu deinem Gerät erhalten, für den Grund, der oben angegeben wird.

  • Personalisierte Werbung und Inhalte, Messungen, Einblick in das Publikum und Produkt Entwicklung.

    Werbungen und Inhalte können personalisiert werden, basierend auf ein Profil. Mehr Daten können besser personalisierte Werbungen und Inhalte hinzufügen. Werbung und Inhalte können gezeigt und gemessen werden. Einblicke über das Publikum, welche die Werbung gesehen haben und den Inhalt, können abgeleitet werden. So wie Daten können genutzt werden, um es zu verbessern oder die Benutzer Erfahrung zu verbessern das System und die Software.

Wenn du “Ich stimme zu” klickst, erlaubst du uns, die Cookies zu benutzen die Geräte Bezeichnung, den Web oder ähnliche Technologien zu benutzen. Deine Settings, können in deinem Gerät bei deinem Browser geändert werden.

Für den bestimmten Zweck, berechtigten Interessen beruhen darauf, mehr als auf den Inhalt. Du kannst mehr darüber in unseren Privaten und Cookie Politik lesen.